Retour au catalogue

COSMOS 397 DEB

ActifLEO
NORAD 5011·DEBRIS·🇷🇺 Russia

Lancé Feb 25, 1971 depuis Baikonur Cosmodrome

Loading…

Prochains Passages

TLE

Source: Space-Track
1 05011U 71015E   26218.86276539  .00001360  00000-0  24671-3 0  9999
2 05011  65.6691  24.2314 0387900 345.5510  13.4729 14.31029898728129

Suivez COSMOS 397 DEB en temps réel avec AllMySat

Download on the App Store